datetime,flow volume
1913-10-01,7775.20661
1913-10-02,7775.20661
1913-10-03,7775.20661
1913-10-04,9322.31405
1913-10-05,7933.8843
1913-10-06,8330.57851
1913-10-07,8727.27273
1913-10-08,8727.27273
1913-10-09,8330.57851
1913-10-10,7775.20661
1913-10-11,8727.27273
1913-10-12,8112.39669
1913-10-13,8251.23967
1913-10-14,7814.87603
1913-10-15,7973.55372
1913-10-16,8112.39669
1913-10-17,8251.23967
1913-10-18,8112.39669
1913-10-19,7973.55372
1913-10-20,8112.39669
1913-10-21,7973.55372
1913-10-22,8409.91736
1913-10-23,7973.55372
1913-10-24,7814.87603
1913-10-25,7814.87603
1913-10-26,7814.87603
1913-10-27,7814.87603
1913-10-28,7814.87603
1913-10-29,7517.35537
1913-10-30,7219.83471
1913-10-31,7219.83471
1913-11-01,6922.31405
1913-11-02,6922.31405
1913-11-03,7517.35537
1913-11-04,7517.35537
1913-11-05,7517.35537
1913-11-06,7517.35537
1913-11-07,7219.83471
1913-11-08,7219.83471
1913-11-09,7517.35537
1913-11-10,6922.31405
1913-11-11,6922.31405
1913-11-12,6922.31405
1913-11-13,6922.31405
1913-11-14,8409.91736
1913-11-15,8409.91736
1913-11-16,7517.35537
1913-11-17,7517.35537
1913-11-18,7517.35537
1913-11-19,7219.83471
1913-11-20,6922.31405
1913-11-21,6922.31405
1913-11-22,7219.83471
1913-11-23,7219.83471
1913-11-24,6922.31405
1913-11-25,6922.31405
1913-11-26,6327.27273
1913-11-27,6029.75207
1913-11-28,6624.79339
1913-11-29,6922.31405
1913-11-30,6624.79339
1913-12-01,6327.27273
1913-12-02,6327.27273
1913-12-03,5732.2314
1913-12-04,6029.75207
1913-12-05,5732.2314
1913-12-06,5732.2314
1913-12-07,6029.75207
1913-12-08,5732.2314
1913-12-09,6029.75207
1913-12-10,4879.33884
1913-12-11,4879.33884
1913-12-12,4661.15702
1913-12-13,4462.80992
1913-12-14,4264.46281
1913-12-15,4066.1157
1913-12-16,3867.7686
1913-12-17,4264.46281
1913-12-18,4462.80992
1913-12-19,4462.80992
1913-12-20,4462.80992
1913-12-21,4264.46281
1913-12-22,3867.7686
1913-12-23,3669.42149
1913-12-24,3867.7686
1913-12-25,3094.21488
1913-12-26,3272.72727
1913-12-27,3272.72727
1913-12-28,3471.07438
1913-12-29,3471.07438
1913-12-30,3471.07438
1913-12-31,3669.42149
1914-01-01,3669.42149
1914-01-02,4066.1157
1914-01-03,4462.80992
1914-01-04,4462.80992
1914-01-05,4462.80992
1914-01-06,4264.46281
1914-01-07,4264.46281
1914-01-08,4066.1157
1914-01-09,3471.07438
1914-01-10,3272.72727
1914-01-11,3272.72727
1914-01-12,3471.07438
1914-01-13,3471.07438
1914-01-14,3669.42149
1914-01-15,3669.42149
1914-01-16,3669.42149
1914-01-17,9441.32231
1914-01-18,11583.4711
1914-01-19,11583.4711
1914-01-20,11940.4959
1914-01-21,11940.4959
1914-01-22,7814.87603
1914-01-23,5434.71074
1914-01-24,4661.15702
1914-01-25,4879.33884
1914-01-26,4661.15702
1914-01-27,7814.87603
1914-01-28,12694.2149
1914-01-29,5157.02479
1914-01-30,4879.33884
1914-01-31,4066.1157
1914-02-01,3867.7686
1914-02-02,3867.7686
1914-02-03,3867.7686
1914-02-04,4066.1157
1914-02-05,4462.80992
1914-02-06,4462.80992
1914-02-07,4264.46281
1914-02-08,4264.46281
1914-02-09,4066.1157
1914-02-10,4661.15702
1914-02-11,4462.80992
1914-02-12,4879.33884
1914-02-13,4879.33884
1914-02-14,4661.15702
1914-02-15,4661.15702
1914-02-16,4879.33884
1914-02-17,4879.33884
1914-02-18,4661.15702
1914-02-19,4879.33884
1914-02-20,6029.75207
1914-02-21,5732.2314
1914-02-22,16561.9835
1914-02-23,14360.3306
1914-02-24,6029.75207
1914-02-25,5434.71074
1914-02-26,4264.46281
1914-02-27,4264.46281
1914-02-28,4066.1157
1914-03-01,4066.1157
1914-03-02,6327.27273
1914-03-03,7219.83471
1914-03-04,5157.02479
1914-03-05,5157.02479
1914-03-06,5434.71074
1914-03-07,5732.2314
1914-03-08,6327.27273
1914-03-09,6327.27273
1914-03-10,6624.79339
1914-03-11,7219.83471
1914-03-12,7517.35537
1914-03-13,6624.79339
1914-03-14,6029.75207
1914-03-15,6029.75207
1914-03-16,6327.27273
1914-03-17,7814.87603
1914-03-18,7814.87603
1914-03-19,8727.27273
1914-03-20,9441.32231
1914-03-21,8727.27273
1914-03-22,8727.27273
1914-03-23,7814.87603
1914-03-24,7517.35537
1914-03-25,7219.83471
1914-03-26,7814.87603
1914-03-27,7814.87603
1914-03-28,7814.87603
1914-03-29,8409.91736
1914-03-30,9798.34711
1914-03-31,10512.3967
1914-04-01,10155.3719
1914-04-02,8727.27273
1914-04-03,8727.27273
1914-04-04,10155.3719
1914-04-05,13090.9091
1914-04-06,21421.4876
1914-04-07,20826.4463
1914-04-08,20231.405
1914-04-09,18842.9752
1914-04-10,17057.8512
1914-04-11,16066.1157
1914-04-12,16066.1157
1914-04-13,17057.8512
1914-04-14,14876.0331
1914-04-15,17057.8512
1914-04-16,21421.4876
1914-04-17,27966.9422
1914-04-18,26380.1653
1914-04-19,21421.4876
1914-04-20,19438.0165
1914-04-21,18842.9752
1914-04-22,23404.9587
1914-04-23,24991.7355
1914-04-24,25785.124
1914-04-25,25785.124
1914-04-26,23404.9587
1914-04-27,24991.7355
1914-04-28,24991.7355
1914-04-29,23404.9587
1914-04-30,21421.4876
1914-05-01,22214.876
1914-05-02,20826.4463
1914-05-03,23404.9587
1914-05-04,23404.9587
1914-05-05,26380.1653
1914-05-06,27966.9422
1914-05-07,29752.0661
1914-05-08,31338.843
1914-05-09,35305.7851
1914-05-10,44826.4463
1914-05-11,62082.6446
1914-05-12,72000.0
1914-05-13,70611.5703
1914-05-14,70611.5703
1914-05-15,69024.7934
1914-05-16,70611.5703
1914-05-17,69024.7934
1914-05-18,69024.7934
1914-05-19,67636.3636
1914-05-20,70611.5703
1914-05-21,73388.4298
1914-05-22,87471.0744
1914-05-23,87471.0744
1914-05-24,106314.05
1914-05-25,116628.099
1914-05-26,112066.116
1914-05-27,106314.05
1914-05-28,103338.843
1914-05-29,103338.843
1914-05-30,101950.413
1914-05-31,104727.273
1914-06-01,110677.686
1914-06-02,118214.876
1914-06-03,130115.702
1914-06-04,130115.702
1914-06-05,124165.289
1914-06-06,119801.653
1914-06-07,107702.479
1914-06-08,94809.9174
1914-06-09,86082.6446
1914-06-10,76165.2893
1914-06-11,73388.4298
1914-06-12,80330.5785
1914-06-13,89057.8512
1914-06-14,97586.7769
1914-06-15,103338.843
1914-06-16,103338.843
1914-06-17,103338.843
1914-06-18,94809.9174
1914-06-19,93223.1405
1914-06-20,94809.9174
1914-06-21,93223.1405
1914-06-22,93223.1405
1914-06-23,89057.8512
1914-06-24,86082.6446
1914-06-25,83305.7851
1914-06-26,76165.2893
1914-06-27,73388.4298
1914-06-28,66247.9339
1914-06-29,59504.1322
1914-06-30,56727.2727
1914-07-01,57917.3554
1914-07-02,52760.3306
1914-07-03,48793.3884
1914-07-04,44826.4463
1914-07-05,51371.9008
1914-07-06,47404.9587
1914-07-07,47404.9587
1914-07-08,44826.4463
1914-07-09,40264.4628
1914-07-10,36495.8678
1914-07-11,35702.4793
1914-07-12,33123.9669
1914-07-13,31537.1901
1914-07-14,30148.7603
1914-07-15,31537.1901
1914-07-16,32330.5785
1914-07-17,30148.7603
1914-07-18,28165.2893
1914-07-19,30743.8017
1914-07-20,39272.7273
1914-07-21,43636.3636
1914-07-22,36495.8678
1914-07-23,31537.1901
1914-07-24,32330.5785
1914-07-25,30148.7603
1914-07-26,26181.8182
1914-07-27,30148.7603
1914-07-28,23801.6529
1914-07-29,24991.7355
1914-07-30,27371.9008
1914-07-31,27371.9008
1914-08-01,27371.9008
1914-08-02,26181.8182
1914-08-03,25586.7769
1914-08-04,23206.6116
1914-08-05,21421.4876
1914-08-06,20429.7521
1914-08-07,18842.9752
1914-08-08,16938.843
1914-08-09,16462.8099
1914-08-10,22611.5703
1914-08-11,18366.9422
1914-08-12,16938.843
1914-08-13,15510.7438
1914-08-14,14201.6529
1914-08-15,12892.562
1914-08-16,12456.1984
1914-08-17,11226.4463
1914-08-18,10433.0579
1914-08-19,9639.66942
1914-08-20,9639.66942
1914-08-21,9242.97521
1914-08-22,9242.97521
1914-08-23,10829.7521
1914-08-24,13765.2893
1914-08-25,18366.9422
1914-08-26,12019.8347
1914-08-27,18366.9422
1914-08-28,15074.3802
1914-08-29,14638.0165
1914-08-30,13765.2893
1914-08-31,13328.9256
1914-09-01,13328.9256
1914-09-02,13765.2893
1914-09-03,12892.562
1914-09-04,12019.8347
1914-09-05,11226.4463
1914-09-06,10433.0579
1914-09-07,9639.66942
1914-09-08,8846.28099
1914-09-09,8449.58678
1914-09-10,8052.89256
1914-09-11,7656.19835
1914-09-12,7259.50413
1914-09-13,7656.19835
1914-09-14,7656.19835
1914-09-15,7259.50413
1914-09-16,7656.19835
1914-09-17,8052.89256
1914-09-18,8052.89256
1914-09-19,8052.89256
1914-09-20,7259.50413
1914-09-21,8052.89256
1914-09-22,8449.58678
1914-09-23,8052.89256
1914-09-24,8052.89256
1914-09-25,8846.28099
1914-09-26,8052.89256
1914-09-27,8052.89256
1914-09-28,7259.50413
1914-09-29,7259.50413
1914-09-30,8052.89256
1914-10-01,7259.50413
1914-10-02,8449.58678
1914-10-03,8052.89256
1914-10-04,18366.9422
1914-10-05,27371.9008
1914-10-06,18366.9422
1914-10-07,15510.7438
1914-10-08,9242.97521
1914-10-09,13765.2893
1914-10-10,14638.0165
1914-10-11,14201.6529
1914-10-12,13765.2893
1914-10-13,12297.5207
1914-10-14,10829.7521
1914-10-15,11226.4463
1914-10-16,11226.4463
1914-10-17,10829.7521
1914-10-18,10433.0579
1914-10-19,10433.0579
1914-10-20,9639.66942
1914-10-21,10036.3636
1914-10-22,9639.66942
1914-10-23,13765.2893
1914-10-24,11226.4463
1914-10-25,11226.4463
1914-10-26,10433.0579
1914-10-27,11226.4463
1914-10-28,10433.0579
1914-10-29,10433.0579
1914-10-30,9838.01653
1914-10-31,9441.32231
1914-11-01,9242.97521
1914-11-02,9242.97521
1914-11-03,8647.93388
1914-11-04,9242.97521
1914-11-05,8449.58678
1914-11-06,8846.28099
1914-11-07,7854.54545
1914-11-08,8052.89256
1914-11-09,7656.19835
1914-11-10,7259.50413
1914-11-11,7457.85124
1914-11-12,7061.15702
1914-11-13,7061.15702
1914-11-14,6743.80165
1914-11-15,7061.15702
1914-11-16,6862.80992
1914-11-17,6862.80992
1914-11-18,6545.45455
1914-11-19,6148.76033
1914-11-20,6347.10744
1914-11-21,5553.71901
1914-11-22,5950.41322
1914-11-23,5553.71901
1914-11-24,5553.71901
1914-11-25,5553.71901
1914-11-26,5553.71901
1914-11-27,5950.41322
1914-11-28,5553.71901
1914-11-29,5950.41322
1914-11-30,5950.41322
1914-12-01,5712.39669
1914-12-02,5712.39669
1914-12-03,5514.04959
1914-12-04,4919.00826
1914-12-05,4720.66116
1914-12-06,5097.52066
1914-12-07,5315.70248
1914-12-08,5097.52066
1914-12-09,5315.70248
1914-12-10,5097.52066
1914-12-11,4720.66116
1914-12-12,4363.63636
1914-12-13,4363.63636
1914-12-14,4363.63636
1914-12-15,4363.63636
1914-12-16,4363.63636
1914-12-17,4363.63636
1914-12-18,4363.63636
1914-12-19,4363.63636
1914-12-20,4363.63636
1914-12-21,4363.63636
1914-12-22,4363.63636
1914-12-23,4363.63636
1914-12-24,4363.63636
1914-12-25,4363.63636
1914-12-26,4363.63636
1914-12-27,4363.63636
1914-12-28,4363.63636
1914-12-29,4363.63636
1914-12-30,4363.63636
1914-12-31,4363.63636
1915-01-01,4204.95868
1915-01-02,4204.95868
1915-01-03,4204.95868
1915-01-04,4204.95868
1915-01-05,4204.95868
1915-01-06,4204.95868
1915-01-07,4204.95868
1915-01-08,4204.95868
1915-01-09,4204.95868
1915-01-10,4204.95868
1915-01-11,4204.95868
1915-01-12,4204.95868
1915-01-13,4204.95868
1915-01-14,4204.95868
1915-01-15,4204.95868
1915-01-16,4204.95868
1915-01-17,4204.95868
1915-01-18,4204.95868
1915-01-19,4204.95868
1915-01-20,4204.95868
1915-01-21,4204.95868
1915-01-22,4204.95868
1915-01-23,4204.95868
1915-01-24,4204.95868
1915-01-25,4204.95868
1915-01-26,4204.95868
1915-01-27,4204.95868
1915-01-28,4204.95868
1915-01-29,4204.95868
1915-01-30,4204.95868
1915-01-31,4204.95868
1915-02-01,4542.14876
1915-02-02,4542.14876
1915-02-03,4542.14876
1915-02-04,4542.14876
1915-02-05,4542.14876
1915-02-06,4542.14876
1915-02-07,4542.14876
1915-02-08,4542.14876
1915-02-09,4542.14876
1915-02-10,4542.14876
1915-02-11,4542.14876
1915-02-12,4542.14876
1915-02-13,4542.14876
1915-02-14,4542.14876
1915-02-15,5514.04959
1915-02-16,5514.04959
1915-02-17,5514.04959
1915-02-18,5514.04959
1915-02-19,5514.04959
1915-02-20,5514.04959
1915-02-21,5514.04959
1915-02-22,5514.04959
1915-02-23,5514.04959
1915-02-24,5514.04959
1915-02-25,5514.04959
1915-02-26,5514.04959
1915-02-27,5514.04959
1915-02-28,5514.04959
1915-03-01,5514.04959
1915-03-02,5355.3719
1915-03-03,5196.69421
1915-03-04,5018.18182
1915-03-05,4859.50413
1915-03-06,4700.82645
1915-03-07,4522.31405
1915-03-08,4363.63636
1915-03-09,4938.84298
1915-03-10,5514.04959
1915-03-11,5712.39669
1915-03-12,6148.76033
1915-03-13,6228.09917
1915-03-14,6287.60331
1915-03-15,6366.94215
1915-03-16,6366.94215
1915-03-17,6366.94215
1915-03-18,5930.57851
1915-03-19,5930.57851
1915-03-20,5514.04959
1915-03-21,5315.70248
1915-03-22,4720.66116
1915-03-23,4720.66116
1915-03-24,4919.00826
1915-03-25,5097.52066
1915-03-26,5930.57851
1915-03-27,6366.94215
1915-03-28,6366.94215
1915-03-29,7100.82645
1915-03-30,7358.67769
1915-03-31,7874.38017
1915-04-01,7616.52893
1915-04-02,7616.52893
1915-04-03,7616.52893
1915-04-04,8687.60331
1915-04-05,11880.9917
1915-04-06,14380.1653
1915-04-07,16323.9669
1915-04-08,15669.4215
1915-04-09,16978.5124
1915-04-10,15669.4215
1915-04-11,15669.4215
1915-04-12,15669.4215
1915-04-13,15669.4215
1915-04-14,18327.2727
1915-04-15,22016.5289
1915-04-16,22809.9174
1915-04-17,21223.1405
1915-04-18,19755.3719
1915-04-19,21223.1405
1915-04-20,22809.9174
1915-04-21,24396.6942
1915-04-22,27570.2479
1915-04-23,27570.2479
1915-04-24,26776.8595
1915-04-25,24396.6942
1915-04-26,23603.3058
1915-04-27,22016.5289
1915-04-28,22809.9174
1915-04-29,25983.4711
1915-04-30,35107.438
1915-05-01,44628.0992
1915-05-02,41057.8512
1915-05-03,35107.438
1915-05-04,29157.0248
1915-05-05,26776.8595
1915-05-06,24396.6942
1915-05-07,23603.3058
1915-05-08,20429.7521
1915-05-09,19041.3223
1915-05-10,17652.8926
1915-05-11,16978.5124
1915-05-12,17652.8926
1915-05-13,23603.3058
1915-05-14,35107.438
1915-05-15,46413.2231
1915-05-16,47206.6116
1915-05-17,47206.6116
1915-05-18,48991.7355
1915-05-19,50776.8595
1915-05-20,48991.7355
1915-05-21,46413.2231
1915-05-22,45421.4876
1915-05-23,41057.8512
1915-05-24,38479.3388
1915-05-25,39471.0744
1915-05-26,42842.9752
1915-05-27,43834.7107
1915-05-28,42049.5868
1915-05-29,37685.9504
1915-05-30,36892.562
1915-05-31,38479.3388
1915-06-01,40264.4628
1915-06-02,46413.2231
1915-06-03,56925.6198
1915-06-04,55933.8843
1915-06-05,49785.124
1915-06-06,45421.4876
1915-06-07,44628.0992
1915-06-08,42049.5868
1915-06-09,39471.0744
1915-06-10,41057.8512
1915-06-11,48198.3471
1915-06-12,58710.7438
1915-06-13,66644.6281
1915-06-14,63074.3802
1915-06-15,51570.2479
1915-06-16,45421.4876
1915-06-17,45421.4876
1915-06-18,49785.124
1915-06-19,54148.7603
1915-06-20,54942.1488
1915-06-21,61090.9091
1915-06-22,63074.3802
1915-06-23,60297.5207
1915-06-24,60297.5207
1915-06-25,58512.3967
1915-06-26,54942.1488
1915-06-27,53157.0248
1915-06-28,49785.124
1915-06-29,45421.4876
1915-06-30,41851.2397
1915-07-01,38479.3388
1915-07-02,36694.2149
1915-07-03,33322.3141
1915-07-04,31735.5372
1915-07-05,29157.0248
1915-07-06,27570.2479
1915-07-07,29157.0248
1915-07-08,28363.6364
1915-07-09,25190.0826
1915-07-10,22016.5289
1915-07-11,21223.1405
1915-07-12,21223.1405
1915-07-13,22016.5289
1915-07-14,21223.1405
1915-07-15,19775.2066
1915-07-16,19021.4876
1915-07-17,18267.7686
1915-07-18,16641.3223
1915-07-19,15371.9008
1915-07-20,14102.4793
1915-07-21,12852.8926
1915-07-22,12238.0165
1915-07-23,11325.6198
1915-07-24,10433.0579
1915-07-25,10433.0579
1915-07-26,11325.6198
1915-07-27,11325.6198
1915-07-28,11623.1405
1915-07-29,11623.1405
1915-07-30,11325.6198
1915-07-31,10730.5785
1915-08-01,9560.33058
1915-08-02,8707.43802
1915-08-03,7894.21488
1915-08-04,7120.66116
1915-08-05,6386.77686
1915-08-06,5514.04959
1915-08-07,5732.2314
1915-08-08,5732.2314
1915-08-09,5732.2314
1915-08-10,7894.21488
1915-08-11,9560.33058
1915-08-12,8985.12397
1915-08-13,7636.36364
1915-08-14,6862.80992
1915-08-15,6386.77686
1915-08-16,6386.77686
1915-08-17,5732.2314
1915-08-18,5514.04959
1915-08-19,5315.70248
1915-08-20,5117.35537
1915-08-21,4561.98347
1915-08-22,4403.30579
1915-08-23,4224.79339
1915-08-24,4740.49587
1915-08-25,4919.00826
1915-08-26,4224.79339
1915-08-27,3907.43802
1915-08-28,4066.1157
1915-08-29,4224.79339
1915-08-30,3808.26446
1915-08-31,3312.39669
1915-09-01,3332.2314
1915-09-02,3074.38017
1915-09-03,3054.54545
1915-09-04,4740.49587
1915-09-05,3986.77686
1915-09-06,3352.06612
1915-09-07,3847.93388
1915-09-08,3292.56198
1915-09-09,3094.21488
1915-09-10,3014.87603
1915-09-11,3550.41322
1915-09-12,3570.24793
1915-09-13,3292.56198
1915-09-14,3094.21488
1915-09-15,3133.8843
1915-09-16,3292.56198
1915-09-17,3292.56198
1915-09-18,3292.56198
1915-09-19,3927.27273
1915-09-20,3649.58678
1915-09-21,3292.56198
1915-09-22,3193.38843
1915-09-23,3133.8843
1915-09-24,3213.22314
1915-09-25,9203.30579
1915-09-26,8925.61983
1915-09-27,7596.69421
1915-09-28,7338.84298
1915-09-29,7338.84298
1915-09-30,7100.82645
1915-10-01,6624.79339
1915-10-02,6624.79339
1915-10-03,6624.79339
1915-10-04,6624.79339
1915-10-05,6228.09917
1915-10-06,6228.09917
1915-10-07,6228.09917
1915-10-08,6029.75207
1915-10-09,5831.40496
1915-10-10,5454.54545
1915-10-11,5276.03306
1915-10-12,5077.68595
1915-10-13,5276.03306
1915-10-14,4899.17355
1915-10-15,4720.66116
1915-10-16,5276.03306
1915-10-17,5077.68595
1915-10-18,5276.03306
1915-10-19,5077.68595
1915-10-20,5454.54545
1915-10-21,5831.40496
1915-10-22,5454.54545
1915-10-23,5454.54545
1915-10-24,5276.03306
1915-10-25,5276.03306
1915-10-26,4899.17355
1915-10-27,5276.03306
1915-10-28,5276.03306
1915-10-29,5077.68595
1915-10-30,4899.17355
1915-10-31,4899.17355
1915-11-01,4899.17355
1915-11-02,4720.66116
1915-11-03,4899.17355
1915-11-04,4720.66116
1915-11-05,4720.66116
1915-11-06,4720.66116
1915-11-07,5077.68595
1915-11-08,6624.79339
1915-11-09,5633.05785
1915-11-10,7041.32231
1915-11-11,6823.1405
1915-11-12,6029.75207
1915-11-13,5454.54545
1915-11-14,4899.17355
1915-11-15,4720.66116
1915-11-16,4720.66116
1915-11-17,4542.14876
1915-11-18,5077.68595
1915-11-19,5276.03306
1915-11-20,5454.54545
1915-11-21,5633.05785
1915-11-22,5831.40496
1915-11-23,6029.75207
1915-11-24,6426.44628
1915-11-25,6426.44628
1915-11-26,6228.09917
1915-11-27,6029.75207
1915-11-28,5454.54545
1915-11-29,5454.54545
1915-11-30,5276.03306
1915-12-01,4720.66116
1915-12-02,4899.17355
1915-12-03,5077.68595
1915-12-04,5454.54545
1915-12-05,5276.03306
1915-12-06,5454.54545
1915-12-07,5633.05785
1915-12-08,5831.40496
1915-12-09,5633.05785
1915-12-10,5454.54545
1915-12-11,5276.03306
1915-12-12,5276.03306
1915-12-13,5077.68595
1915-12-14,5077.68595
1915-12-15,5276.03306
1915-12-16,5454.54545
1915-12-17,5454.54545
1915-12-18,5216.52893
1915-12-19,4958.67769
1915-12-20,4720.66116
1915-12-21,4561.98347
1915-12-22,4561.98347
1915-12-23,4561.98347
1915-12-24,4561.98347
1915-12-25,4561.98347
1915-12-26,4561.98347
1915-12-27,4561.98347
1915-12-28,4561.98347
1915-12-29,4561.98347
1915-12-30,4561.98347
1915-12-31,4561.98347
1916-01-01,5157.02479
1916-01-02,5157.02479
1916-01-03,5157.02479
1916-01-04,5157.02479
1916-01-05,5157.02479
1916-01-06,5851.23967
1916-01-07,5950.41322
1916-01-08,5950.41322
1916-01-09,5950.41322
1916-01-10,5950.41322
1916-01-11,5950.41322
1916-01-12,5950.41322
1916-01-13,5950.41322
1916-01-14,5950.41322
1916-01-15,5950.41322
1916-01-16,5950.41322
1916-01-17,5950.41322
1916-01-18,5950.41322
1916-01-19,5950.41322
1916-01-20,5950.41322
1916-01-21,5950.41322
1916-01-22,5950.41322
1916-01-23,5950.41322
1916-01-24,5950.41322
1916-01-25,5950.41322
1916-01-26,5950.41322
1916-01-27,6327.27273
1916-01-28,6148.76033
1916-01-29,6148.76033
1916-01-30,6148.76033
1916-01-31,6148.76033
1916-02-01,6347.10744
1916-02-02,6347.10744
1916-02-03,6347.10744
1916-02-04,6347.10744
1916-02-05,6347.10744
1916-02-06,6347.10744
1916-02-07,6347.10744
1916-02-08,6347.10744
1916-02-09,6347.10744
1916-02-10,6347.10744
1916-02-11,6347.10744
1916-02-12,6347.10744
1916-02-13,6347.10744
1916-02-14,6347.10744
1916-02-15,6347.10744
1916-02-16,6347.10744
1916-02-17,6347.10744
1916-02-18,6347.10744
1916-02-19,6347.10744
1916-02-20,6347.10744
1916-02-21,6347.10744
1916-02-22,6347.10744
1916-02-23,6347.10744
1916-02-24,6347.10744
1916-02-25,6347.10744
1916-02-26,6347.10744
1916-02-27,6624.79339
1916-02-28,7259.50413
1916-02-29,7259.50413
1916-03-01,6823.1405
1916-03-02,6228.09917
1916-03-03,5831.40496
1916-03-04,5454.54545
1916-03-05,6823.1405
1916-03-06,9659.50413
1916-03-07,8548.76033
1916-03-08,7676.03306
1916-03-09,7041.32231
1916-03-10,7041.32231
1916-03-11,7676.03306
1916-03-12,8330.57851
1916-03-13,9659.50413
1916-03-14,11067.7686
1916-03-15,12575.2066
1916-03-16,12059.5041
1916-03-17,11563.6364
1916-03-18,12575.2066
1916-03-19,14142.1488
1916-03-20,15828.0992
1916-03-21,18842.9752
1916-03-22,25388.4298
1916-03-23,31933.8843
1916-03-24,31933.8843
1916-03-25,24000.0
1916-03-26,20033.0579
1916-03-27,17593.3884
1916-03-28,15828.0992
1916-03-29,16403.3058
1916-03-30,17593.3884
1916-03-31,16403.3058
1916-04-01,15252.8926
1916-04-02,14142.1488
1916-04-03,13606.6116
1916-04-04,15252.8926
1916-04-05,16403.3058
1916-04-06,15828.0992
1916-04-07,14697.5207
1916-04-08,13606.6116
1916-04-09,12317.3554
1916-04-10,12059.5041
1916-04-11,14142.1488
1916-04-12,18208.2645
1916-04-13,18842.9752
1916-04-14,20033.0579
1916-04-15,20826.4463
1916-04-16,20033.0579
1916-04-17,22611.5703
1916-04-18,26776.8595
1916-04-19,30347.1074
1916-04-20,29553.719
1916-04-21,25983.4711
1916-04-22,24000.0
1916-04-23,26776.8595
1916-04-24,31933.8843
1916-04-25,36099.1736
1916-04-26,40264.4628
1916-04-27,43636.3636
1916-04-28,47008.2645
1916-04-29,53157.0248
1916-04-30,61289.2562
1916-05-01,55933.8843
1916-05-02,44429.7521
1916-05-03,37685.9504
1916-05-04,34314.0496
1916-05-05,34314.0496
1916-05-06,39272.7273
1916-05-07,50578.5124
1916-05-08,64859.5041
1916-05-09,74181.8182
1916-05-10,84495.8678
1916-05-11,93024.7934
1916-05-12,93024.7934
1916-05-13,87272.7273
1916-05-14,79735.5372
1916-05-15,71404.9587
1916-05-16,61289.2562
1916-05-17,48000.0
1916-05-18,40264.4628
1916-05-19,37685.9504
1916-05-20,36892.562
1916-05-21,43636.3636
1916-05-22,44429.7521
1916-05-23,44429.7521
1916-05-24,43636.3636
1916-05-25,41851.2397
1916-05-26,43636.3636
1916-05-27,45223.1405
1916-05-28,47008.2645
1916-05-29,48793.3884
1916-05-30,51371.9008
1916-05-31,55933.8843
1916-06-01,61289.2562
1916-06-02,64859.5041
1916-06-03,65851.2397
1916-06-04,65851.2397
1916-06-05,68628.0992
1916-06-06,69421.4876
1916-06-07,67636.3636
1916-06-08,65851.2397
1916-06-09,62280.9917
1916-06-10,65851.2397
1916-06-11,72198.3471
1916-06-12,77950.4132
1916-06-13,79735.5372
1916-06-14,81719.0083
1916-06-15,82512.3967
1916-06-16,79735.5372
1916-06-17,77950.4132
1916-06-18,77950.4132
1916-06-19,77950.4132
1916-06-20,78743.8017
1916-06-21,76958.6777
1916-06-22,70413.2231
1916-06-23,64859.5041
1916-06-24,57719.0083
1916-06-25,52363.6364
1916-06-26,50578.5124
1916-06-27,49586.7769
1916-06-28,48793.3884
1916-06-29,48793.3884
1916-06-30,48000.0
1916-07-01,47008.2645
1916-07-02,44429.7521
1916-07-03,42842.9752
1916-07-04,40264.4628
1916-07-05,36892.562
1916-07-06,34314.0496
1916-07-07,32727.2727
1916-07-08,30347.1074
1916-07-09,30347.1074
1916-07-10,31140.4959
1916-07-11,33520.6612
1916-07-12,31933.8843
1916-07-13,29553.719
1916-07-14,26776.8595
1916-07-15,25388.4298
1916-07-16,24793.3884
1916-07-17,24000.0
1916-07-18,24793.3884
1916-07-19,23404.9587
1916-07-20,22016.5289
1916-07-21,20826.4463
1916-07-22,18842.9752
1916-07-23,18208.2645
1916-07-24,16998.3471
1916-07-25,16403.3058
1916-07-26,16403.3058
1916-07-27,17593.3884
1916-07-28,22016.5289
1916-07-29,24000.0
1916-07-30,23404.9587
1916-07-31,22611.5703
1916-08-01,24793.3884
1916-08-02,25983.4711
1916-08-03,27371.9008
1916-08-04,34314.0496
1916-08-05,28165.2893
1916-08-06,28165.2893
1916-08-07,27371.9008
1916-08-08,28165.2893
1916-08-09,27371.9008
1916-08-10,24000.0
1916-08-11,22611.5703
1916-08-12,21421.4876
1916-08-13,27371.9008
1916-08-14,29553.719
1916-08-15,27371.9008
1916-08-16,25983.4711
1916-08-17,24000.0
1916-08-18,20033.0579
1916-08-19,18208.2645
1916-08-20,16403.3058
1916-08-21,15252.8926
1916-08-22,14697.5207
1916-08-23,13606.6116
1916-08-24,12059.5041
1916-08-25,11563.6364
1916-08-26,10829.7521
1916-08-27,10591.7355
1916-08-28,10115.7025
1916-08-29,9659.50413
1916-08-30,9659.50413
1916-08-31,9441.32231
1916-09-01,9203.30579
1916-09-02,9441.32231
1916-09-03,8985.12397
1916-09-04,8548.76033
1916-09-05,8112.39669
1916-09-06,8330.57851
1916-09-07,8112.39669
1916-09-08,8112.39669
1916-09-09,8330.57851
1916-09-10,11563.6364
1916-09-11,12059.5041
1916-09-12,13090.9091
1916-09-13,13090.9091
1916-09-14,12833.0579
1916-09-15,12575.2066
1916-09-16,11821.4876
1916-09-17,11067.7686
1916-09-18,10353.719
1916-09-19,9659.50413
1916-09-20,9203.30579
1916-09-21,8985.12397
1916-09-22,8548.76033
1916-09-23,8330.57851
1916-09-24,8112.39669
1916-09-25,7894.21488
1916-09-26,8112.39669
1916-09-27,8112.39669